Regional Weather Roundup
Issued by NWS Little Rock, AR

Home | Current Version | Previous Version | Graphics & Text | Print | Product List | Glossary On
Versions: 1 2 3 4 5 6 7 8 9 10 11 12 13 14 15 16 17 18 19 20 21 22 23 24 25 26 27 28 29 30 31 32
000
ASUS44 KLZK 191205
RWRLZK

WEATHER ROUNDUP FOR ARKANSAS
NATIONAL WEATHER SERVICE LITTLE ROCK AR
600 AM CST MON FEB 19 2018

NOTE: "FAIR" INDICATES FEW OR NO CLOUDS BELOW 12,000 FEET WITH NO
SIGNIFICANT WEATHER AND/OR OBSTRUCTIONS TO VISIBILITY.

ARZ001-003-010-029-191300-
NORTHWEST ARKANSAS

CITY           SKY/WX    TMP DP  RH WIND       PRES   REMARKS
FAYETTEVILLE   CLOUDY    60  57  89 S21G30    29.87R
6HR MIN TEMP:  54; 6HR MAX TEMP:  61;

FORT SMITH     CLOUDY    55  53  93 NE6       29.90R
6HR MIN TEMP:  50; 6HR MAX TEMP:  55; 6HR PCP: TRACE;

HARRISON       CLOUDY    59  53  80 S17G23    29.88F
6HR MIN TEMP:  52; 6HR MAX TEMP:  60; 6HR PCP: TRACE;

BENTONVILLE    CLOUDY    61  55  81 S15G22    29.87R
6HR MIN TEMP:  55; 6HR MAX TEMP:  61;

ROGERS         CLOUDY    62  55  77 S20       29.86R
6HR MIN TEMP:  56; 6HR MAX TEMP:  62;

SILOAM SPGS    CLOUDY    61  56  83 S15       29.86R
6HR MIN TEMP:  53; 6HR MAX TEMP:  61;

HIGHFILL       CLOUDY    62  56  80 S17G29    29.86R
6HR MIN TEMP:  54; 6HR MAX TEMP:  62; 6HR PCP: TRACE;

SPRINGDALE     CLOUDY    63  57  82 SW25G33   29.88
$$

ARZ004-005-016-191300-
NORTH CENTRAL ARKANSAS

CITY           SKY/WX    TMP DP  RH WIND       PRES   REMARKS
BATESVILLE     CLOUDY    61  59  93 SW12G20   29.99R
6HR MIN TEMP:  50; 6HR MAX TEMP:  61; 6HR PCP:  0.01;

FLIPPIN        MOCLDY    58  54  86 S9        29.91F
6HR MIN TEMP:  51; 6HR MAX TEMP:  58;

MTN HOME       LGT RAIN  57  55  93 SW10G20   29.92S
6HR MIN TEMP:  50; 6HR MAX TEMP:  57; 6HR PCP: TRACE;

$$

ARZ040-041-191300-
WEST CENTRAL ARKANSAS

CITY           SKY/WX    TMP DP  RH WIND       PRES   REMARKS
MENA           CLOUDY    64  64 100 S8G22     29.95R
MOUNT IDA      MOCLDY    65  60  84 VRB7G22   29.93R
6HR MIN TEMP:  54; 6HR MAX TEMP:  65; 6HR PCP: TRACE;

$$

ARZ009-017-025-026-028-191300-
NORTHEAST ARKANSAS

CITY           SKY/WX    TMP DP  RH WIND       PRES   REMARKS
JONESBORO      CLOUDY    57  57 100 S13       30.02R
6HR MIN TEMP:  52; 6HR MAX TEMP:  57; 6HR PCP: TRACE;

NEWPORT          N/A     58  57  97 S16       29.99R
6HR MIN TEMP:  51; 6HR MAX TEMP:  58; 6HR PCP: TRACE;

WALNUT RIDGE   LGT RAIN  57  56  96 SE16      29.97F
6HR MIN TEMP:  51; 6HR MAX TEMP:  57; 6HR PCP: TRACE;

BLYTHEVILLE    CLOUDY    60  58  92 S12       30.05S
6HR MIN TEMP:  55; 6HR MAX TEMP:  60;

$$

ARZ022-023-033-042-044-191300-
CENTRAL ARKANSAS

CITY           SKY/WX    TMP DP  RH WIND       PRES   REMARKS
LITTLE ROCK    CLOUDY    61  61 100 S12       30.00R
6HR MIN TEMP:  51; 6HR MAX TEMP:  61; 6HR PCP:  0.01;

N LITTLE ROCK    N/A     59  59 100 S7        29.97R
6HR MIN TEMP:  49; 6HR MAX TEMP:  59;

JACKSONVILLE   CLOUDY    60  60 100 S3        29.98R
6HR MIN TEMP:  51; 6HR MAX TEMP:  60;

SEARCY         CLOUDY    58  50  75 S6        30.00F
6HR MIN TEMP:  52; 6HR MAX TEMP:  58;

HOT SPRINGS    CLOUDY    63  61  93 SW7       29.98S
6HR MIN TEMP:  50; 6HR MAX TEMP:  63; 6HR PCP: TRACE;

RUSSELLVILLE   CLOUDY    54  54 100 SE7       29.95S
6HR MIN TEMP:  49; 6HR MAX TEMP:  54; 6HR PCP:  0.02;

CLINTON        CLOUDY    50  50 100 CALM      29.99R FOG
$$

ARZ036-191300-
EAST ARKANSAS

CITY           SKY/WX    TMP DP  RH WIND       PRES   REMARKS
WEST MEMPHIS   CLOUDY    62  61  96 S18G25    30.04F
6HR MIN TEMP:  55; 6HR MAX TEMP:  62;

$$

ARZ050-053-066-070-073-191300-
SOUTHWEST ARKANSAS

CITY           SKY/WX    TMP DP  RH WIND       PRES   REMARKS
ARKADELPHIA    CLOUDY    51  51 100 CALM      29.99S FOG
6HR MIN TEMP:  50; 6HR MAX TEMP:  53;

CAMDEN         MOCLDY    63  59  88 S8        30.01S
TEXARKANA      CLOUDY    63  61  93 S13G23    29.98R
6HR MIN TEMP:  60; 6HR MAX TEMP:  64;

EL DORADO      FAIR      63  63 100 S9        30.03S
6HR MIN TEMP:  62; 6HR MAX TEMP:  65;

DE QUEEN       CLOUDY    58  58 100 CALM      29.94S FOG
6HR MIN TEMP:  50; 6HR MAX TEMP:  59; 6HR PCP: TRACE;

$$

ARZ056-057-069-191300-
SOUTHEAST ARKANSAS

CITY           SKY/WX    TMP DP  RH WIND       PRES   REMARKS
PINE BLUFF     MOCLDY    62  60  93 S15       30.02R
6HR MIN TEMP:  54; 6HR MAX TEMP:  63;

STUTTGART      CLOUDY    61  59  93 S13       30.03R
6HR MIN TEMP:  55; 6HR MAX TEMP:  61;

MONTICELLO     CLOUDY    65  62  90 S10       30.05S
6HR MIN TEMP:  59; 6HR MAX TEMP:  65;


$$






USA.gov is the U.S. government's official web portal to all federal, state and local government web resources and services.